Location: Carrer del Canonge
(41.4901°N, 2.2931°E)
Time: 14:05:58
(UTC+00:00)

ISS - Pass Details

Date: 01 December 2020
Orbit: 418 x 419 km, 51.6° (Epoch: 18 January)

Event Time Altitude Azimuth Distance (km) Brightness Sun altitude
Rises 17:53:25 0° 307° (NW) 2,369 0.6 -16.7°
Reaches altitude 10° 17:56:04 10° 328° (NNW) 1,503 -0.7 -17.2°
Enters shadow 17:57:59 17° 3° (N) 1,165 -1.7 -17.6°
